Location: Unspecified
(49.2170°N, 0.0000°E)
Time: 14:42:51
(UTC+00:00)

Transit 4A - Pass Details

Date: 16 June 2019
Orbit: 862 x 982 km, 66.8° (Epoch: 20 July)

Event Time Altitude Azimuth Distance (km) Brightness Sun altitude
Rises 11:37:39 0° 256° (WSW) 3,641 11.0 63.7°
Reaches altitude 10° 11:40:32 10° 267° (W) 2,711 10.4 63.8°
Maximum altitude 11:46:02 30° 327° (NNW) 1,694 9.4 64.0°
Drops below altitude 10° 11:51:36 10° 27° (NNE) 2,747 10.3 64.1°
Sets 11:54:34 0° 38° (NE) 3,696 10.8 64.1°
